Location: Dob?ice
(48.9969°N, 14.2329°E)
Time: 00:13:14
(UTC+00:00)

Daily predictions for brighter satellites

Satellite Brightness Start Highest point End
(mag) Time Altitude Azimuth Time Altitude Azimuth Time Altitude Azimuth
CZ-2D R/B 4.3 00:35:55 10° NNE 00:37:41 21° NNE 00:37:41 21° NNE
ADEOS II 4.0 00:59:10 10° NNE 01:01:33 27° NNE 01:01:33 27° NNE
BREEZE-M R/B 4.5 01:30:39 60° E 01:30:39 60° E 01:38:52 10° E
ATLAS CENTAUR R/B 3.6 01:32:08 28° ENE 01:32:08 28° ENE 01:34:37 10° NE
Cosmos 1980 Rocket 4.1 01:30:51 10° NNW 01:41:00 14° SE 01:41:48 10° SE
ATLAS 5 CENTAUR R/B 4.2 01:41:57 14° N 01:42:20 14° N 01:44:58 10° NNE
SL-16 R/B 4.4 01:51:00 17° NW 01:51:00 17° NW 01:52:25 10° NNW
Cosmos 2056 Rocket 4.2 01:55:00 50° NE 01:55:00 50° NE 01:58:55 10° NNE
SL-16 R/B 4.1 01:55:40 10° NNW 02:00:31 28° NE 02:05:21 10° ESE
IRS-1D 3.9 01:58:01 10° NNE 02:02:36 64° NE 02:02:36 64° NE
ALOS 3.2 02:00:40 10° NNE 02:05:08 43° E 02:05:10 43° E
Resurs 1-4 Rocket 3.9 02:01:01 10° N 02:03:14 21° NNW 02:03:14 21° NNW
IDEFIX/ARIANE 42P 3.8 02:02:34 10° N 02:05:39 32° NNW 02:05:39 32° NNW
USA 305 4.5 02:09:29 32° NE 02:09:29 32° NE 02:11:52 10° ENE
FENGYUN 3A 4.0 02:04:03 10° NNE 02:09:24 60° E 02:10:02 56° SE
Cosmos 1833 Rocket 2.9 02:13:00 62° NNW 02:13:00 62° NNW 02:17:58 10° NNE
CZ-2D R/B 3.9 02:16:40 10° N 02:18:59 20° NNW 02:18:59 20° NNW
CENTAUR R/B 3.1 02:27:13 35° S 02:29:24 50° ESE 02:36:07 10° NE
Meteor 1-27 Rocket 4.0 02:28:05 38° S 02:30:25 72° E 02:36:20 10° NNE
ARIANE 5 R/B 3.8 02:28:23 10° NNE 02:33:04 37° E 02:37:40 10° SSE
BREEZE-M DEB (TANK) 3.7 02:34:33 28° E 02:34:33 28° E 02:36:26 10° E
Lacrosse 4 Rocket 2.5 02:30:46 19° NNW 02:33:34 45° NE 02:37:50 10° SE
CZ-2C R/B 3.4 02:28:50 10° SE 02:33:55 53° ENE 02:39:09 10° N
Cosmos 2100 Rocket 4.2 02:30:37 20° S 02:34:58 67° E 02:41:06 10° NNE
Cosmos 1153 Rocket 4.3 02:34:05 51° SSW 02:35:44 81° W 02:42:03 10° N
CZ-2C R/B 3.9 02:34:47 10° NNE 02:37:41 24° SE 02:39:58 10° SSE
Helios 1B rocket 3.3 02:33:58 10° NNE 02:37:55 46° E 02:39:02 36° SE
Cosmos 1447 Rocket 4.5 02:32:16 10° NNW 02:38:26 57° W 02:38:47 56° WSW
Meteor 1-10 Rocket 4.1 02:39:08 64° W 02:39:29 66° WNW 02:45:09 10° N
Cosmos 2082 Rocket 2.1 02:38:50 56° SSW 02:40:04 85° ESE 02:45:43 10° NNE
ADEOS II 3.5 02:39:28 10° N 02:42:28 23° NW 02:42:28 23° NW
Cosmos 2360 Rocket 4.1 02:39:48 10° NNW 02:44:39 28° NE 02:49:28 10° ESE
Cosmos 1452 Rocket 3.9 02:43:49 31° S 02:46:15 62° ESE 02:51:29 10° NNE
Okean 1 4.0 02:47:37 31° SSE 02:49:15 53° E 02:53:11 10° NNE
CZ-2C R/B 2.3 02:44:35 10° NNE 02:49:35 86° ESE 02:51:09 44° S
Cosmos 1624 Rocket 4.3 02:50:31 46° WNW 02:50:37 46° WNW 02:55:47 10° NNE
USA 307 3.3 02:51:30 47° NNW 02:51:37 47° NNW 02:55:37 10° ENE
Cosmos 1441 Rocket 4.2 02:55:51 35° NNW 02:55:51 35° NNW 02:58:19 10° N
Cosmos 2346 Rocket 4.3 02:49:30 10° NNW 02:55:36 76° W 03:01:42 10° S
ERBS 4.4 02:57:08 17° N 02:57:08 17° N 02:58:36 10° NE
SL-24 R/B - RUBIN 2 4.3 02:57:59 30° S 02:59:45 48° ESE 03:03:56 10° NE
USA 306 3.5 03:00:25 40° NNW 03:00:59 43° N 03:04:55 10° ENE
Cosmos 1459 Rocket 4.0 02:55:35 13° S 03:01:20 88° WNW 03:07:45 10° N
COSMOS 2406 3.4 03:01:52 44° W 03:03:13 54° NW 03:08:49 10° NNE
BREEZE-M DEB (TANK) 2.9 03:04:00 38° S 03:04:00 38° S 03:08:33 10° SE
NOSS 3-2 (A) 3.3 03:01:33 34° SSW 03:04:06 80° SE 03:10:34 10° NE
NOSS 3-2 (C) 4.1 03:01:04 16° S 03:05:08 47° ESE 03:11:08 10° NE
Cosmos 482 Debris 4.0 03:07:26 68° SSW 03:07:28 68° SSW 03:12:11 10° ESE
Meteor 2-13 Rocket 4.4 03:02:06 10° NNW 03:08:11 64° W 03:14:15 10° S
ATLAS CENTAUR R/B 2.5 03:08:06 35° WNW 03:08:49 37° NW 03:13:19 10° NNE
Cosmos 1328 Rocket 4.2 03:12:11 36° WNW 03:12:11 36° WNW 03:15:53 10° N
Cosmos 1933 Rocket 3.4 03:07:43 10° NNW 03:12:08 68° W 03:16:30 10° S
CZ-2D R/B 3.8 03:09:40 10° NNE 03:13:38 63° ESE 03:17:38 10° S
DELTA 2 DEB (DPAF) 4.0 03:09:23 10° SSE 03:13:47 88° WSW 03:18:13 10° NNW
OPS 6432 4.3 03:13:23 56° NNW 03:13:53 73° NE 03:17:13 10° SE
Cosmos 2322 Rocket 2.8 03:08:50 10° NNW 03:14:28 58° ENE 03:20:03 10° SE
IRS-1C 4.0 03:09:19 10° NNE 03:14:42 86° WNW 03:19:32 13° SSW
X-37B 2.8 03:18:09 14° SSE 03:18:09 14° SSE 03:18:56 10° SSE
Meteor 1-11 Rocket 4.4 03:11:41 10° NNW 03:17:02 35° W 03:18:13 32° WSW
Cosmos 1980 Rocket 3.7 03:23:06 18° SSW 03:23:06 18° SSW 03:24:48 10° SSW
SL-08 R/B 3.3 03:15:28 10° SSE 03:20:10 89° ENE 03:25:00 10° NNW
Cosmos 1975 3.2 03:16:14 10° N 03:20:13 64° ENE 03:24:09 10° SSE
USA 238 DEB 4.1 03:14:48 11° SSW 03:20:49 57° ESE 03:27:29 10° NE
USA 238 4.1 03:14:52 11° SSW 03:20:55 57° ESE 03:27:35 10° NE
COSMOS 2455 3.6 03:16:22 10° NNW 03:22:17 53° NE 03:28:09 10° SE
BREEZE M DEB (TANK) 4.0 03:16:14 21° SW 03:24:42 66° SSE 03:28:46 10° ENE
Tsikada Rocket 4.1 03:19:09 10° N 03:25:29 81° E 03:31:42 10° SSE
PAYLOAD A 4.1 03:21:04 10° N 03:25:45 49° WNW 03:28:15 26° SW
Cosmos 1242 Rocket 3.5 03:22:37 10° N 03:25:57 45° ENE 03:29:13 10° SSE
Cosmos 1850 Rocket 4.2 03:20:52 10° NNW 03:26:00 49° WSW 03:31:08 10° S
USA 308 3.6 03:25:30 28° NW 03:27:09 41° N 03:31:04 10° ENE
Cosmos 44 Rocket 3.8 03:26:24 31° W 03:27:51 40° NW 03:32:20 10° NNE
ATLAS 5 CENTAUR R/B 4.1 03:24:43 10° NNW 03:28:34 23° NNE 03:32:59 10° ENE
Meteor 2-9 Rocket 4.2 03:24:21 10° NNW 03:29:56 56° W 03:35:21 10° S
Cosmos 1802 Rocket 4.0 03:24:27 10° SSW 03:30:46 69° W 03:37:04 10° N
Cosmos 1725 Rocket 4.0 03:24:36 10° S 03:30:56 86° W 03:37:19 10° N
Cosmos 1378 3.0 03:30:12 29° SSW 03:31:53 60° WNW 03:35:30 10° N
Meteor 1-19 Rocket 4.1 03:33:02 10° SSW 03:38:22 61° WNW 03:43:47 10° N
Cosmos 2173 Rocket 4.2 03:33:20 13° SW 03:38:31 47° WNW 03:44:24 10° N
Cosmos 1515 Rocket 4.2 03:37:56 26° WSW 03:39:42 36° WNW 03:43:51 10° N
GP-B 3.0 03:35:55 10° S 03:40:19 64° W 03:44:44 10° N
ALOS 3.3 03:38:25 10° N 03:42:18 27° WNW 03:43:37 23° W
Cosmos 1461 3.1 03:42:22 27° WSW 03:44:19 50° NW 03:48:28 10° NNE
Cosmos 2278 4.2 03:39:17 10° NW 03:44:20 34° WSW 03:49:22 10° S
Cosmos 1733 4.2 03:41:23 10° N 03:45:02 47° ENE 03:48:39 10° SSE
SL-16 R/B 2.1 03:39:28 10° NNW 03:45:06 66° WSW 03:50:42 10° SSE
USA 305 3.7 03:44:58 18° WNW 03:47:35 40° N 03:51:29 10° ENE
Meteor 2-19 Rocket 4.4 03:43:37 10° N 03:49:50 86° W 03:55:59 10° S
USA 290 3.3 03:48:01 10° NNW 03:51:09 46° ENE 03:54:15 10° SE
IRS-P3 4.4 03:49:25 10° N 03:54:32 47° WNW 03:59:36 10° SW
SJ 16-02 3.8 03:53:15 10° N 03:56:48 24° NE 04:00:21 10° ESE
CZ-3 R/B 4.3 03:39:43 12° WSW 03:57:20 29° SSW 04:04:57 10° SE
Cosmos 1833 Rocket 4.4 03:54:43 13° WNW 03:57:20 18° NW 04:01:06 10° N
Cosmos 192 4.4 03:55:24 10° SW 04:00:19 62° WNW 04:05:15 10° NNE
Cosmos 2228 Rocket 3.0 03:58:37 10° SSW 04:03:03 67° WNW 04:07:28 10° N
Spot 4 Rocket 4.0 03:59:38 10° NNE 04:04:47 73° WNW 04:09:52 10° SSW
YAOGAN 6 3.1 04:01:50 10° N 04:05:14 38° WNW 04:08:34 10° SW
Cosmos 1331 Rocket 4.2 04:00:44 10° SW 04:05:43 50° WNW 04:10:47 10° NNE
Cosmos 2219 Rocket 3.3 04:00:21 10° NNW 04:05:48 46° NE 04:11:12 10° SE
Cosmos 1302 Rocket 4.0 04:04:34 10° SSW 04:09:52 87° WNW 04:15:13 10° NNE
Cosmos 1726 3.0 04:06:21 10° N 04:09:54 51° ENE 04:13:26 10° SSE
Cosmos 1484 Rocket 3.6 04:06:45 10° N 04:10:19 32° WNW 04:13:51 10° SW
Lacrosse 4 Rocket 2.5 04:08:21 10° NW 04:11:59 26° WSW 04:15:39 10° SSW
ARIANE 5 R/B 3.2 04:07:37 10° N 04:12:06 33° WNW 04:16:32 10° SW
Helios 1B rocket 3.8 04:09:45 10° NNW 04:12:45 20° WNW 04:15:11 12° WSW
Lacrosse 5 rocket 3.4 04:09:18 10° SSW 04:13:18 30° SE 04:17:15 10° ENE
CZ-2C R/B 3.5 04:10:12 10° SSW 04:14:31 25° W 04:18:56 10° NW
DMSP B5D2-2 4.1 04:09:20 10° SSE 04:14:36 85° WSW 04:19:56 10° NNW
Meteor 1-29 3.4 04:12:52 10° N 04:15:58 38° WNW 04:19:03 10° SW
CZ-2C R/B 3.3 04:12:34 10° N 04:18:13 61° WNW 04:23:36 10° SSW
CENTAUR R/B 3.1 04:14:25 11° WSW 04:20:10 48° NW 04:27:24 10° NE
CZ-4C R/B 4.0 04:17:20 10° SSW 04:21:21 39° W 04:25:28 10° NNW
Cosmos 2333 Rocket 2.4 04:16:24 10° NNW 04:22:08 80° ENE 04:27:48 10° SSE
COSMO-SKYMED 1 2.5 04:19:26 10° S 04:23:45 70° WSW 04:28:06 10° NNW
Cosmos 1707 Rocket 3.5 04:19:58 10° SSW 04:24:16 67° W 04:28:36 10° N
Cosmos 2082 Rocket 3.5 04:20:42 11° W 04:24:53 22° NW 04:29:16 10° N
CZ-2C R/B 4.0 04:24:07 10° NNW 04:27:05 16° NW 04:29:59 10° W
Envisat 3.5 04:23:55 10° N 04:28:36 38° WNW 04:33:16 10° SW
Cosmos 2360 Rocket 2.2 04:23:31 10° NNW 04:29:05 63° WSW 04:34:37 10° SSE
USA 276 2.6 04:26:40 10° SW 04:29:37 53° SSE 04:32:35 10° E
Cosmos 968 Rocket 3.9 04:25:59 10° NW 04:30:45 39° WSW 04:35:28 10° S
Cosmos 2237 Rocket 4.4 04:26:15 10° N 04:30:48 24° NE 04:35:19 10° E
USA 307 3.7 04:27:33 10° WNW 04:31:31 43° N 04:35:28 10° E
Meteor 2-10 4.0 04:26:47 10° NNW 04:31:54 65° W 04:36:53 10° S
ERBS 4.1 04:29:43 10° NW 04:31:57 20° NNE 04:34:11 10° ENE
SWAS 4.4 04:29:04 10° SW 04:33:22 77° WNW 04:37:39 10° NNE
COSMOS 2487 2.3 04:31:08 10° SSW 04:33:57 68° ESE 04:36:48 10° NNE
H-2A R/B 3.8 04:30:40 10° NNE 04:35:49 41° E 04:40:54 10° SSE
Spot 1 4.3 04:31:53 10° S 04:36:46 74° WSW 04:41:26 10° NNW
H-2A R/B 3.5 04:36:28 10° N 04:39:41 30° WNW 04:42:55 10° SW
USA 306 3.5 04:36:50 10° WNW 04:40:49 47° NNE 04:44:49 10° E
